Погода в Кирсанове

Погода в Кирсанове : погода сейчас, прогноз погоды и архив. Всё, что Вы хотите узнать о погоде в Кирсанове!

Хотите узнать прогноз погоды в Кирсанове? Тогда Вам сюда: Погода в Кирсанове

Поиск расширенной информации на нашем сайте:

Другие новости

Новости СМИ2

Главная страница сайта

Новости сайта

02.10.2013

Напоминаем, что на нашем новом сайте вы можете получить высокодетализированные прогнозы погоды по пунктам России, СНГ и мира (включающие важные для авиации метеовеличины, такие как направление и скорость ветра, видимость, явления погоды, количество и форма облачности, нижняя и верхняя граница облачности), а также ознакомиться с разнообразными материалами по авиационной метеорологии и подборкой полезных ссылок на эту тему.

Сайт Метеоцентр.Азия посвящён разработке технологий оптимизации авиаметеорологического обслуживания, включая проектирование и перспективное создание нескольких автоматизированных авиаметеорологических систем:
- система выпуска высокодетальных прогностических карт явлений погоды для нижнего воздушного пространства по России и ближнему зарубежью;
- система верификации прогнозов TAF (выпускаемых синоптиками официальных АМСГ РФ и ближнего зарубежья) и AUTOTAF (выпускаемых сайтом Метеоцентр.Азия) - выявление ошибок, онлайн-сопоставление с фактической погодой METAR, автоматическое внесение коррективов в прогнозы при резком отклонении фактической погоды от прогноза, подсчёт оправдываемости прогнозов по элементам и в целом;
- система обработки, анализа и отображения авиаметеорологической информации для применения провайдерами метеорологической информации.


Погода в Кирсанове - сегодня

Время (UTC), дата Ветер
(°,м/с) 
Видим.   Явления Облачность Т
(°С)
Тd
(°С)
f(%) Тe
(°С)
Pmin
(гПа)
dP
(гПа)
Po
(мм)
O2
(г/м3)
Тmin Tmax R s Состояние
почвы
21 17.01.17 тихо ()   4000 м  слаб. снег  10/10 300 м 
[Frnb|Ns]
-11.7 -13 90 -12  1033.3  0.3  758  320           
00 18.01.17 тихо ()   10 км  {снег}  10/10 300 м 
[St]
-10.3 -11.6 90 -10  1033.9  0.7  759  319           
03 18.01.17 240 (ЮЗ) 10 км    10/10 300 м 
[St]
-7.2 -8.1 93 -9  1033.6  759  315  -17.1    0.0  35  равномерный
сухой снег
100% 
06 18.01.17 320 (СЗ) 4000 м  дымка  10/10 300 м 
[St]
-7.2 -8.1 93 -10  1034.8  1.2  760  315           
09 18.01.17 240 (ЮЗ) 4000 м  дымка{туман}  10/10 300 м 
[St]
-7 -7 100 -7  1035.4  0.6  760  315           
12 18.01.17 260 (З) 4000 м  {туман}  10/10 300 м 
[St]
-5.3 -6.7 90 -7  1033.9  -0.7  759  313           
15 18.01.17 310 (СЗ) 10 км    10/10 600 м 
[Sc]
-5.9 -8.1 84 -8  1035.3  0.6  760  314    -5.2       
18 18.01.17 300 (СЗ) 10 км    10/10 300 м 
[St]
-6.3 -9.9 76 -10  1035.4  0.1  760  314           
21 18.01.17 300 (СЗ) 10 км    10/10 600 м 
[Sc]
-7.6 -10.2 82 -9  1035.5  -0.1  760  316           
00 19.01.17 110 (В) 19  0200 м    10/10 200 м 
[Sc]
-13.2   1034  -1  759             
03 19.01.17 220 (ЮЗ) 10 км    6/0 средняя 
[As op]
-14.7 -16.7 85 -15  1033.9  -1.1  758  324  -14.8      35  равномерный
сухой снег
100% 
06 19.01.17 210 (ЮЗ) 10 км    8/8 600 м 
[Sc]
-13.4 -15.4 85 -16  1032.8  -1  758  322  -14.9         
09 19.01.17 240 (ЮЗ) 10 км    10/10 300 м 
[St]
-6 -10.8 69 -9  1030.9  -1.2  757  313           
12 19.01.17 240 (ЮЗ) 10 км    10/10 300 м 
[St]
-6.4 -10 76 -8  1029.8  -1.1  756  313           
15 19.01.17 220 (ЮЗ) 10 км    6/0 средняя 
[Ac trans]
-8.9 -11.8 79 -11  1028.7  -1.3  755  316    -5.7       
18 19.01.17 240 (ЮЗ) 10 км    8/0 средняя 
[Ac trans]
-11.7 -13.7 85 -17  1027.2  -1.7  754  318           
21 19.01.17 220 (ЮЗ) 10 км    10/10 300 м 
[St]
-10.6 -12.6 85 -15  1023.9  -3.1  751  316           
00 20.01.17 230 (ЮЗ) 4-10  10 км    8/8 600 м 
[Sc]
-8 -9.8 87 -12  1020.7  -2.9  749  312           
03 20.01.17 230 (ЮЗ) 4000 м  слаб. снег  10/10 300 м 
[Frnb|Ns]
-7.5 -9.2 88 -11  1017.8  -2.8  747  310  -12    0.3  36  равномерный
сухой снег
100% 
06 20.01.17 240 (ЮЗ) 4-12  10 км  {снег}  10/10 300 м 
[St]
-7.6 -9.4 87 -11  1016.3  -1.5  746  310           
09 20.01.17 250 (З) 10 км    10/10 300 м 
[St]
-6.1 -8 86 -9  1015.1  -1.1  745  308           
12 20.01.17 270 (З) 10 км    10/10 300 м 
[St]
-4.9 -6.6 88 -7  1014  -1  744  306           
15 20.01.17 270 (З) 10 км    10/10 300 м 
[St]
-3.9 -5.8 87 -6  1014.3  0.4  745  305    -3.8  0.0     
18 20.01.17 270 (З) 10 км    10/10 600 м 
[Sc]
-3.5 -6 83 -6  1014.5  0.2  745  305           
21 20.01.17 260 (З) 10 км    10/10 600 м 
[Sc]
-3.7 -6.6 80 -6  1014.3  -0.2  745  305           
Время (UTC), дата Ветер
(°,м/с) 
Видим.   Явления Облачность Т
(°С)
Тd
(°С)
f(%) Тe
(°С)
Pmin
(гПа)
dP
(гПа)
Po
(мм)
O2
(г/м3)
Тmin Tmax R s Состояние
почвы

Для получения пояснительной информации подведите курсор к названию столбца.

ПОГОДА в Кирсанове - архив

Всё, что Вы хотите узнать о погоде в Кирсанове - удобно и подробно!

Выберите нужную дату (начиная с 1 января 2015* года) и нажмите кнопку "Найти".
Будут отображены архивные сводки погоды по пункту Кирсанов, начиная с указанной даты.


Отображать данные в формате CSV (для использования в таблицах Excel)


Внимание! Наш архив погоды предназначен исключительно для личного некоммерческого использования в познавательных целях. Если Вам необходимы официальные справки о состоянии погоды (для производственных, юридических, коммерческих и т.п. целей), обращайтесь в органы Росгидромета.

*Примечание: данная дата относится к архиву по метеостанциям СССР (Россия, СНГ, Балтия).
Архив по метеостанциям Зарубежной Европы и Азии (кроме Китая) хранится 10 дней, по другим регионам земного шара (Китай, Африка, Америка, Австралия, Океания) - 1 день.

Кирсанов - район местоположения метеостанции


Название, широта, долгота, высота метеостанции:
Кирсанов 52.7°ш. 42.7°д. 169 м над ур. моря [Российская Федерация]

Дополнительная информация

В oтличие oт бoльшинства пoгoдных сайтoв мы публикуем пoдрoбную метеoинфoрмацию в детальнoм прoфессиoнальнoм фoрмате.

Характеристики температуры и влажнoсти вoздуха измеряются на высoте 2 м в тени вдали oт зданий и деревьев.
Скoрoсть ветра измеряется на высoте 10 м (на урoвне рoста челoвека скoрoсть ветра ниже в 1.5-2 раза). Если метеoстанция нахoдится в гoрoде или в лесу, тo скoрoсть ветра занижена на 2-4 м/с пo сравнению с oткрытым местoм. Скoрoсть ветра над акватoриями крупных рек и oзёр, а также на вершинах хoлмoв на 2-5 м/с выше, чем в oбычных услoвиях.
Атмoсфернoе давление в разных тoчках местнoсти мoжет значительнo oтличаться oт давления на метеoстанции, в зависимoсти oт услoвий рельефа (при пoдъёме на 10 м давление пoнижается примернo на 1 мм рт.ст.).